Zurück zum Katalog

DELTA 1 DEB

AktivLEO
NORAD 7080·DEBRIS·🇺🇸 United States

Gestartet Nov 6, 1973 von Vandenberg Space Force Base

Loading…

Nächste Überflüge (nächste 24 Stunden)

TLE

AktuellSource: Space-Track

Epoche: Sep 14, 2026, 10:37 UTC

1 07080U 73086BY  26257.44256397  .00000493  00000-0  26936-2 0  9995
2 07080 101.9413 258.3714 0048501  22.4355 138.3456 12.70583112421440

Verfolge DELTA 1 DEB in Echtzeit mit AllMySat

Download on the App Store